This is the latest recevied weather packets stored in our database for station/object KQ4UPF. If no packets are shown the sender has not sent any weather packets the latest 10 day(s).
| Time | Temp. | Humidity | Pressure | Rain* | Wind** | Luminosity | Snow |
|---|---|---|---|---|---|---|---|
| 1777836662 | 20.56° C | 46% | 1020.6 hPa | 0 mm | - | 871 W/m² | - |
| 1777836358 | 20.56° C | 40% | 1020.7 hPa | 0 mm | - | 880 W/m² | - |
| 1777836054 | 20.56° C | 45% | 1021 hPa | 0 mm | - | 893 W/m² | - |
| 1777835751 | 20.56° C | 44% | 1020.9 hPa | 0 mm | - | 905 W/m² | - |
| 1777835448 | 20° C | 46% | 1021.1 hPa | 0 mm | - | 908 W/m² | - |
| 1777835145 | 20° C | 43% | 1021.2 hPa | 0 mm | - | 914 W/m² | - |
| 1777834842 | 20° C | 45% | 1021.2 hPa | 0 mm | - | 932 W/m² | - |
| 1777834539 | 20.56° C | 45% | 1021.3 hPa | 0 mm | - | 936 W/m² | - |
| 1777834238 | 20° C | 40% | 1021.4 hPa | 0 mm | - | 936 W/m² | - |
| 1777833935 | 20.56° C | 42% | 1021.4 hPa | 0 mm | - | 944 W/m² | - |
| 1777833631 | 20° C | 48% | 1021.5 hPa | 0 mm | - | 952 W/m² | - |
| 1777833328 | 20° C | 43% | 1021.6 hPa | 0 mm | - | 960 W/m² | - |
| 1777833025 | 20° C | 43% | 1021.5 hPa | 0 mm | - | 962 W/m² | - |
| 1777832724 | 20° C | 44% | 1021.6 hPa | 0 mm | - | 966 W/m² | - |
| 1777832421 | 20° C | 42% | 1021.8 hPa | 0 mm | - | 977 W/m² | - |
| 1777832118 | 19.44° C | 42% | 1021.9 hPa | 0 mm | - | 979 W/m² | - |
| 1777831814 | 18.89° C | 40% | 1021.7 hPa | 0 mm | - | 981 W/m² | - |
| 1777831512 | 18.89° C | 42% | 1021.8 hPa | 0 mm | - | 981 W/m² | - |
| 1777831209 | 18.89° C | 44% | 1021.9 hPa | 0 mm | - | 982 W/m² | - |
| 1777830906 | 18.33° C | 43% | 1021.9 hPa | 0 mm | - | 985 W/m² | - |
| 1777830603 | 19.44° C | 40% | 1022 hPa | 0 mm | - | 982 W/m² | - |
| 1777830301 | 18.89° C | 48% | 1022.2 hPa | 0 mm | - | 984 W/m² | - |
| 1777829996 | 18.89° C | 47% | 1022.2 hPa | 0 mm | - | 983 W/m² | - |
| 1777829692 | 18.89° C | 52% | 1022.1 hPa | 0 mm | - | 975 W/m² | - |
| 1777829388 | 18.33° C | 47% | 1022.2 hPa | 0 mm | - | 978 W/m² | - |
* Rain latest hour (hover to see other rain measurements)
** Current wind speed in m/s (hover to see current wind gust speed)